Location: Holkham
(52.9500°N, 0.8167°E)
Time: 05:51:55
(UTC+00:00)

Cosmos 2333 Rocket - Pass Details

Date: 19 May 2025
Orbit: 840 x 862 km, 70.8° (Epoch: 18 June)

Event Time Altitude Azimuth Distance (km) Brightness Sun altitude
Rises 22:02:26 0° 327° (NNW) 3,445 7.4 -13.2°
Reaches altitude 10° 22:05:07 10° 336° (NNW) 2,503 6.1 -13.4°
Maximum altitude 22:10:25 37° 43° (NE) 1,315 3.4 -13.7°
Drops below altitude 10° 22:15:40 10° 110° (ESE) 2,477 4.2 -14.1°
Enters shadow 22:15:53 - 111° (ESE) 2,555 4.3 -14.1°
